Theta_e
300 300 300 300 300 301 301 302 303 301 302 293 291 296 294 295 291 302 308 313 311 303 295 296 294 292 294 298 296 295 294 292 292 293 293 293 295 292 293 294 292 293 293 291 289 290 287 288 288 287 287 291 295 294 293 294 292 294 287 291 289 292 283 281 285 287 289 292 294 291 286 288 286 286 286 285 285 286 285 285 285 282 283 282 281 279 282
300 300 300 300 300 300 300 300 301 301 302 294 293 293 292 293 292 296 305 311 307 299 289 289 292 294 297 296 296 297 294 293 292 292 291 293 291 293 291 291 294 292 292 290 290 290 286 290 291 288 289 287 292 293 293 293 292 293 288 289 291 284 284 285 281 280 280 282 284 284 284 285 284 286 288 288 288 287 287 286 283 281 282 283 280 275 282
300 300 300 300 300 299 299 299 299 300 301 299 292 287 290 288 290 294 296 305 303 293 297 294 292 293 293 294 293 294 295 295 297 296 293 294 292 290 289 294 290 290 291 289 290 289 291 287 289 289 287 288 287 288 290 293 290 293 292 294 291 286 286 283 278 275 273 273 274 274 278 280 282 283 286 287 286 285 284 280 283 279 282 284 280 280 286
300 300 300 300 300 299 299 299 299 299 300 301 291 289 287 282 277 283 291 296 296 296 298 294 294 290 291 290 293 295 293 295 294 296 296 298 294 295 292 287 286 285 287 286 287 287 288 287 284 285 283 284 285 287 287 289 289 291 292 289 291 284 284 287 285 282 280 281 283 283 284 282 280 280 282 284 286 286 286 285 282 280 283 282 284 284 285
300 300 300 301 300 299 300 300 300 299 299 300 289 285 286 286 282 282 273 290 292 290 295 293 295 290 294 288 291 289 291 292 293 295 289 292 295 292 293 290 289 287 287 287 288 289 288 287 285 285 286 286 284 286 286 286 287 291 286 289 283 283 283 286 286 285 286 287 286 288 288 285 286 285 285 286 285 283 282 281 280 286 282 278 286 286 283
300 301 301 300 300 300 299 300 299 299 301 304 289 281 285 278 280 287 289 286 281 284 284 289 288 290 291 289 292 288 287 287 286 289 291 290 289 287 287 291 292 292 289 287 284 286 287 284 284 286 283 282 284 284 285 283 287 286 283 287 286 283 282 285 287 285 287 288 287 287 286 286 285 286 285 285 286 285 283 284 285 284 280 278 284 285 284
302 301 301 301 301 300 300 300 299 299 299 300 285 279 280 282 282 283 288 283 286 286 286 286 286 286 288 287 290 288 288 286 288 287 287 289 286 291 286 287 289 289 289 286 284 286 282 283 285 282 281 280 282 280 281 283 283 283 281 283 285 285 281 284 284 283 283 283 283 285 284 284 284 285 286 286 285 285 285 285 286 285 283 285 285 285 285
300 301 301 301 301 301 300 300 299 299 301 294 286 283 279 278 282 280 286 285 283 283 284 283 283 283 287 285 287 288 288 287 289 288 287 284 286 287 288 287 284 282 282 285 285 286 286 284 281 280 277 278 282 277 280 279 281 283 281 283 284 285 279 286 281 279 279 282 283 283 283 283 282 284 284 284 283 283 284 284 285 286 285 286 286 285 284
300 300 300 301 300 300 300 300 300 299 300 288 286 282 285 285 287 289 282 279 280 281 280 281 281 281 284 283 286 288 287 287 286 285 289 286 285 285 284 283 283 282 281 283 284 285 283 283 283 283 283 279 283 280 279 284 278 280 278 283 283 285 279 283 279 275 275 280 280 281 281 281 280 280 282 282 282 280 282 281 284 283 281 282 282 282 282
300 300 300 300 300 300 300 300 300 300 301 290 288 282 286 284 283 288 285 277 282 279 282 280 279 275 280 283 284 285 284 282 284 283 287 283 285 283 283 283 282 282 283 281 284 283 283 283 284 286 285 286 284 284 283 283 281 279 279 282 279 278 277 275 275 272 272 277 278 276 277 276 273 275 279 281 282 282 283 284 282 279 280 277 278 278 277
302 302 301 300 300 300 300 300 300 300 298 288 285 282 283 282 282 282 284 277 278 278 279 277 277 278 278 278 276 279 281 281 281 280 281 284 283 285 284 282 281 279 281 284 287 285 286 287 286 286 285 284 283 283 283 283 283 281 279 275 273 275 276 274 274 271 271 275 274 273 270 265 268 279 281 283 281 282 280 280 277 278 278 276 279 277 279
302 301 301 301 301 300 300 300 300 300 298 292 291 285 285 284 284 284 280 276 276 280 277 274 276 277 277 277 277 277 277 278 279 283 278 281 282 283 283 282 283 277 286 286 286 286 287 287 286 285 284 282 282 281 281 280 281 283 282 279 276 276 275 273 272 271 269 272 269 269 264 266 276 278 278 277 277 277 275 274 276 278 279 278 277 278 277
301 301 302 301 301 301 301 301 300 299 300 293 292 287 287 287 286 283 281 277 272 277 275 277 278 278 278 277 277 277 278 278 279 280 281 280 279 281 282 282 280 283 287 284 285 283 279 277 278 279 278 280 278 279 278 279 279 280 281 281 278 274 274 270 269 269 268 267 266 263 263 275 277 278 277 278 277 277 274 274 276 277 279 279 276 278 277
301 301 301 301 301 301 301 301 301 301 300 297 292 291 289 289 287 286 283 279 276 279 279 278 278 277 278 277 277 277 277 277 277 277 276 278 277 278 279 283 284 286 284 283 281 280 275 270 260 263 267 263 262 264 271 276 277 278 278 279 280 278 275 270 267 271 265 265 267 267 273 273 275 274 275 274 272 273 271 268 275 273 274 276 276 278 278
301 301 301 301 301 301 301 300 300 300 300 299 293 291 290 291 290 286 284 282 276 279 280 273 277 276 277 276 277 275 275 275 276 275 276 276 277 278 280 282 281 280 281 279 274 275 269 259 258 261 258 260 259 259 268 264 271 276 277 277 279 279 275 275 271 267 274 266 265 266 266 264 268 274 274 276 276 276 277 274 269 274 269 275 278 278 278
301 301 300 300 300 300 301 301 301 300 300 300 295 291 290 292 290 289 286 281 278 273 278 281 280 277 276 276 277 276 274 275 274 273 273 274 275 277 278 278 278 280 280 277 276 268 264 264 262 260 259 258 260 262 258 264 265 266 273 274 276 278 279 276 274 271 274 272 269 268 266 267 272 271 274 275 278 279 278 274 268 276 272 275 278 277 278
300 300 300 300 300 301 301 300 300 301 301 301 294 293 290 292 290 289 286 283 281 275 283 280 282 280 278 276 280 277 278 275 278 271 269 271 275 275 275 276 277 280 279 275 273 269 265 260 256 256 258 261 261 261 264 261 259 263 267 270 266 268 270 275 273 272 272 271 269 267 273 269 275 273 276 277 277 277 276 266 268 273 272 274 278 277 277
300 300 300 300 301 300 301 301 301 301 301 301 296 292 291 293 292 290 287 284 281 280 284 283 279 277 277 278 277 279 276 274 274 274 274 272 268 272 272 272 273 277 280 272 271 266 266 263 264 265 263 268 265 266 261 266 257 262 263 267 263 262 265 268 269 271 271 273 270 272 270 277 274 271 273 274 276 273 263 263 267 272 271 273 276 276 276
300 300 300 300 300 300 300 300 300 300 299 299 297 292 292 293 291 291 288 285 283 278 285 287 287 282 282 281 278 278 278 279 278 274 266 271 270 271 273 271 278 270 273 269 268 265 268 268 265 260 264 265 269 263 267 264 264 265 267 266 264 262 261 263 264 264 266 267 266 267 270 272 269 271 274 274 271 262 265 270 273 271 271 271 276 277 277
300 299 299 300 300 299 300 299 300 300 300 299 297 288 292 294 292 291 287 283 284 282 285 285 285 282 284 281 278 277 276 277 278 276 269 270 270 273 275 272 273 264 264 271 269 270 265 266 268 266 264 265 266 270 264 266 271 268 267 269 268 264 264 260 263 265 266 267 266 266 263 271 272 274 273 273 267 267 273 274 273 274 272 273 273 276 276
299 299 299 299 299 300 300 300 299 299 300 300 298 290 289 293 292 289 290 288 284 280 282 288 286 286 285 284 284 284 281 278 278 276 277 277 276 274 269 268 269 263 264 270 266 269 265 261 262 263 266 267 266 265 262 262 264 271 272 271 270 271 266 263 266 269 266 265 264 262 267 272 272 271 267 269 273 275 275 275 275 274 274 273 274 275 276
299 298 299 299 299 299 299 299 299 299 300 299 298 290 287 292 291 289 290 290 285 283 284 286 287 286 287 288 288 287 285 284 284 284 279 275 274 278 273 271 264 261 263 267 264 264 263 260 259 257 260 263 261 265 263 264 263 267 265 269 264 272 270 271 269 270 268 261 265 270 269 272 272 273 274 276 277 278 277 276 275 274 274 274 273 275 276
299 299 299 299 299 299 299 299 299 299 299 299 297 289 287 290 289 291 289 284 286 286 287 286 287 287 289 289 287 287 288 289 287 284 283 279 275 276 277 276 274 274 272 275 272 271 270 267 267 267 264 266 269 267 260 266 262 263 266 270 271 273 272 272 272 271 275 274 275 277 275 274 276 278 279 278 278 278 277 274 273 274 275 275 275 276 276
299 299 299 298 299 300 300 299 299 298 299 299 297 290 289 289 290 288 286 286 283 280 283 285 282 280 282 283 288 288 287 286 287 287 288 286 277 276 277 279 279 275 273 277 278 277 271 268 269 269 269 270 267 266 267 266 267 267 267 269 271 271 273 271 271 273 270 266 276 274 274 276 276 276 277 278 276 276 276 274 274 275 276 276 276 276 276
299 299 299 299 298 298 298 297 298 298 298 299 297 295 291 288 290 289 284 279 280 279 275 279 281 285 287 289 289 288 288 289 290 288 286 286 284 279 277 280 282 279 277 278 279 273 264 269 269 269 269 275 275 269 274 270 269 273 266 270 268 269 275 272 273 272 270 270 274 276 276 276 276 276 276 276 278 278 275 275 276 276 276 276 276 276 276
299 298 299 299 298 298 298 298 298 298 297 297 296 288 289 288 291 291 288 287 285 282 276 275 279 283 284 285 284 286 289 289 288 287 286 286 286 286 284 282 280 282 280 280 278 277 272 267 268 269 269 271 279 271 271 274 272 275 272 270 274 274 273 262 269 270 274 276 276 276 276 276 276 277 277 277 277 277 276 276 276 275 275 275 275 273 273
299 297 299 299 298 297 298 297 297 297 298 298 295 292 290 289 292 289 286 286 281 277 279 276 280 280 280 281 283 284 285 287 287 286 286 286 285 285 284 283 282 281 281 279 278 275 273 273 273 271 274 272 276 270 271 267 272 269 271 274 276 273 271 274 271 269 269 270 273 275 270 270 275 276 277 275 274 274 274 274 274 274 274 273 272 271 271
298 297 298 298 298 298 297 298 297 297 297 297 295 291 290 289 290 291 291 289 284 278 278 276 276 278 281 275 280 283 285 286 286 285 285 284 285 284 283 283 282 281 281 279 275 272 272 272 272 277 276 273 272 270 276 276 275 272 272 274 276 273 274 273 270 269 269 274 276 276 276 275 276 277 278 275 273 273 273 273 272 271 270 270 269 268 269
297 298 298 298 298 297 297 297 298 298 297 296 289 284 283 288 290 291 292 290 288 284 282 282 281 278 276 279 282 283 283 285 284 284 283 283 283 283 283 283 282 282 282 281 279 278 276 275 278 275 272 275 271 270 273 269 269 268 271 276 276 277 277 276 275 275 276 277 277 277 276 275 277 277 273 269 268 269 269 268 268 268 268 268 267 267 266
297 298 298 297 297 297 297 297 297 296 296 288 285 284 282 284 289 290 292 290 287 285 279 276 273 277 280 277 276 279 281 283 283 283 282 282 282 282 283 282 282 284 282 280 279 274 278 277 278 279 278 279 273 271 271 271 269 271 276 276 276 276 277 278 278 276 275 278 278 276 275 274 274 271 268 267 266 266 266 266 266 266 266 266 265 265 265
297 298 297 297 297 296 297 297 297 296 296 284 284 279 278 276 283 291 293 291 289 285 280 280 276 281 276 279 278 279 280 282 281 281 281 282 282 282 283 283 283 283 279 280 279 279 279 275 276 276 279 279 278 270 271 270 269 271 275 276 276 276 277 277 278 277 273 272 269 269 270 272 271 270 267 264 264 265 265 265 265 265 265 264 264 264 264
297 298 297 297 297 296 297 297 296 296 289 284 283 281 281 281 284 287 292 292 289 283 279 275 275 275 275 277 275 277 281 282 282 281 279 281 279 281 280 282 280 283 282 279 280 279 277 278 277 277 276 280 278 268 271 271 269 271 276 276 277 277 277 276 274 267 264 265 266 271 272 272 263 264 264 264 264 265 264 263 264 264 264 263 263 262 262
296 296 296 298 296 297 297 297 297 294 288 289 293 294 294 295 293 292 292 289 286 282 282 277 273 275 271 270 271 272 278 277 275 279 275 280 277 279 278 282 281 281 285 280 276 274 279 278 279 275 278 279 272 272 271 270 271 275 276 277 277 275 270 266 264 263 262 262 265 267 269 264 261 263 263 264 263 263 262 262 263 262 260 259 259 260 261
297 297 297 296 297 297 296 297 296 295 295 288 283 285 289 294 293 291 286 287 282 281 280 276 272 272 272 271 268 270 280 276 274 278 271 277 277 278 275 278 280 276 280 277 279 278 276 275 273 270 272 273 277 272 269 272 276 276 277 277 268 263 266 265 262 260 260 260 261 261 262 262 262 262 262 262 261 262 262 261 260 257 257 258 258 260 260
296 297 296 297 297 296 296 295 290 288 285 285 285 285 289 294 294 292 289 285 278 276 276 275 276 271 270 269 268 271 275 274 272 276 273 273 279 276 274 271 276 274 275 282 277 277 275 276 277 270 271 274 271 270 272 274 275 276 277 269 261 263 261 264 261 258 258 259 258 260 261 259 259 259 259 259 259 260 259 258 258 257 256 257 258 258 258
296 296 296 297 296 295 292 292 287 284 282 283 283 291 294 294 294 290 288 286 283 277 275 274 274 272 273 269 269 273 280 273 274 274 274 269 269 273 273 274 270 276 279 277 272 276 273 278 273 269 275 270 269 271 274 274 273 268 260 259 259 259 258 258 257 256 257 257 257 259 257 257 257 257 258 258 258 257 257 256 256 256 255 255 256 256 256
296 295 296 296 291 286 283 283 286 284 281 286 289 294 293 289 284 287 284 283 282 283 277 273 269 270 274 271 267 269 276 268 275 270 269 268 268 268 271 271 270 275 272 270 273 272 275 281 273 271 271 268 272 266 260 260 261 261 260 258 258 258 258 258 256 255 254 254 256 257 256 255 255 255 255 256 256 256 254 254 255 254 253 253 254 253 254
296 295 290 286 281 278 278 281 281 284 292 292 292 284 279 281 277 281 280 278 280 281 276 277 273 274 273 269 266 275 276 271 275 271 267 267 270 267 273 273 272 274 265 269 272 278 270 270 270 270 271 267 257 257 258 257 258 258 258 257 257 257 257 256 255 253 252 255 255 254 253 254 254 254 254 253 254 253 254 254 254 254 254 254 253 254 253
294 289 285 283 281 277 277 279 289 293 288 286 283 278 276 277 276 273 273 276 277 272 277 274 273 277 274 271 272 280 276 271 268 268 266 274 270 265 270 266 274 273 267 266 268 277 265 265 268 268 269 264 259 257 256 258 256 256 256 256 256 256 256 255 255 253 252 252 252 252 252 252 252 252 253 252 253 254 254 253 253 253 253 253 252 252 252
285 281 280 280 279 280 285 289 294 289 285 279 277 275 271 275 273 269 275 270 271 272 274 269 277 276 277 274 273 273 279 271 267 267 268 266 276 266 270 264 270 268 263 265 266 270 265 261 263 264 267 270 261 255 255 255 253 254 255 254 255 255 256 254 253 255 254 254 254 253 253 253 253 252 252 251 251 251 251 251 252 252 251 251 252 252 251
282 280 279 278 278 280 282 284 281 278 277 274 274 274 271 268 270 269 270 268 268 267 270 270 272 270 274 276 276 272 277 275 267 269 270 267 275 271 264 264 270 262 261 260 268 261 257 254 257 261 267 258 253 253 253 252 253 253 252 253 253 253 253 253 253 252 251 251 250 251 250 250 250 250 251 250 250 250 250 251 251 251 251 251 251 251 252
282 280 280 282 281 281 282 280 278 275 275 275 271 268 270 268 268 265 269 266 268 265 263 270 267 270 268 274 272 274 270 272 269 273 271 267 275 268 263 261 265 264 260 264 256 254 258 258 256 256 254 250 252 250 250 250 251 251 251 251 252 252 251 251 250 250 249 250 250 250 251 250 250 250 250 250 251 250 251 251 250 250 251 251 251 251 251
288 285 284 279 278 277 278 274 276 274 269 269 267 264 268 264 268 267 267 269 263 263 263 265 267 277 275 273 269 271 272 277 272 270 268 266 274 268 263 264 261 259 264 257 257 259 256 257 254 259 251 250 250 249 249 250 251 252 252 252 252 252 251 250 250 250 251 251 250 250 250 250 250 250 250 250 250 249 250 250 250 250 250 251 250 251 251
285 283 278 276 274 275 276 267 275 269 267 268 266 263 264 262 264 262 260 263 261 262 267 270 270 271 268 270 271 271 270 274 277 266 266 269 265 264 266 261 264 265 262 261 260 259 260 255 258 253 250 249 250 250 251 252 251 251 250 251 251 250 251 251 251 251 250 251 251 251 250 250 250 250 250 249 249 248 249 249 250 250 251 251 250 250 251
278 275 274 272 270 274 271 265 272 267 265 266 269 262 263 263 265 264 266 265 266 266 268 269 270 270 268 267 267 269 274 266 273 270 267 270 265 266 262 262 261 260 262 261 257 256 255 260 251 246 251 250 251 251 250 250 249 249 249 248 249 249 250 250 250 250 250 250 250 250 249 249 249 250 249 249 249 249 249 249 250 250 250 250 250 249 250
276 273 272 268 266 271 268 265 266 262 266 268 265 262 263 264 263 265 265 260 264 262 266 267 265 267 264 264 268 268 267 268 267 268 269 266 264 263 265 262 263 262 259 256 257 260 263 259 251 250 251 250 250 250 249 248 248 247 247 247 248 248 248 248 248 248 249 250 250 250 249 250 249 249 249 249 249 249 249 249 250 250 250 249 249 250 251
276 276 271 270 267 269 268 264 264 264 264 264 262 265 267 266 261 261 258 257 259 261 260 262 267 268 268 265 265 266 265 265 266 268 268 263 263 265 269 262 261 260 258 257 254 256 256 252 251 252 250 249 248 246 246 247 247 247 247 247 247 248 248 248 248 248 249 249 249 249 249 249 249 249 250 249 248 249 249 249 249 250 250 249 250 251 252
272 274 272 265 265 268 266 266 261 258 257 257 257 257 256 256 261 259 256 255 258 262 265 266 266 266 266 268 265 264 264 266 265 267 269 266 267 261 262 261 261 260 254 256 261 254 251 252 251 251 249 248 247 246 246 246 245 246 246 247 247 247 248 248 248 248 248 248 248 248 249 249 249 249 248 248 248 248 248 248 248 249 250 251 252 252 253
272 270 269 267 266 265 264 261 264 265 258 256 255 257 257 262 260 257 256 256 259 262 261 263 264 266 265 269 267 268 266 269 264 264 267 264 262 261 260 256 254 253 257 256 255 251 251 251 248 247 246 246 246 246 246 246 246 246 247 247 248 248 247 248 248 248 248 249 249 249 248 248 248 248 247 247 246 247 249 249 250 250 251 251 252 253 254
269 266 262 260 261 262 258 259 263 260 257 258 258 257 256 258 256 254 255 256 257 258 265 270 273 270 268 267 263 265 263 263 265 266 262 262 261 258 256 252 253 256 254 249 247 248 247 249 246 247 246 244 245 246 246 246 247 248 248 247 248 248 248 248 248 248 248 248 248 248 248 247 247 247 247 247 248 249 249 249 250 250 252 253 253 254 254
264 263 259 258 261 261 263 263 264 262 259 260 259 258 257 258 259 256 258 256 258 262 264 265 266 262 263 264 264 261 263 265 263 264 262 260 256 255 256 258 255 248 248 250 248 249 248 245 244 243 242 242 245 247 247 248 245 245 245 245 246 247 247 247 248 248 248 249 248 248 247 246 247 248 248 249 248 248 248 250 251 252 253 254 255 254 254
262 259 259 258 257 255 256 257 259 259 260 261 260 256 258 257 256 254 258 259 259 266 264 260 262 263 262 262 262 260 261 261 260 257 255 256 252 254 251 249 250 250 250 247 245 245 243 241 241 244 242 243 245 244 244 243 243 243 244 244 245 245 245 246 247 248 247 247 247 246 246 246 247 247 247 248 247 248 249 251 254 255 255 255 255 255 255
Wind_Speed
3 4 4 5 6 7 6 9 11 12 11 4 4 2 1 2 4 1 3 7 11 6 8 4 5 6 3 4 4 1 3 2 1 1 1 3 2 3 4 6 7 6 9 5 6 6 7 6 9 4 4 8 10 6 8 6 4 1 3 0 3 4 2 1 9 6 9 14 12 4 4 1 3 4 3 4 11 12 13 12 7 9 8 10 9 12 4
5 5 6 5 5 5 6 6 8 11 9 2 3 1 1 3 3 4 2 2 1 8 9 9 11 7 6 6 7 1 2 2 5 5 2 3 2 5 4 2 6 6 5 4 8 6 7 6 16 8 7 6 5 5 6 4 0 4 5 3 2 2 3 5 8 5 3 4 6 3 3 1 3 6 8 9 10 10 10 7 3 9 11 13 14 19 6
5 5 6 5 5 5 5 4 6 8 9 5 2 1 1 2 2 3 4 2 2 6 4 9 7 7 9 8 11 8 4 5 13 10 6 3 4 2 3 6 1 4 1 4 4 3 12 6 3 3 1 3 3 7 7 4 1 2 2 3 0 4 5 2 7 9 13 12 10 9 7 6 3 2 6 7 8 13 8 9 8 15 6 15 15 14 10
6 6 6 6 5 5 5 5 4 4 5 7 4 1 1 1 1 2 1 2 1 5 3 2 2 3 6 8 8 8 12 4 2 6 8 9 4 6 3 2 0 1 3 3 3 6 3 7 2 1 1 2 2 1 7 7 3 5 9 10 2 2 1 9 11 13 14 13 11 3 0 1 2 3 4 6 6 9 11 8 11 15 12 15 14 16 16
7 7 6 6 5 3 4 5 5 3 5 5 2 2 1 1 1 1 1 3 2 7 3 4 1 3 4 8 2 13 11 5 5 8 5 4 7 3 7 4 3 3 5 8 9 8 9 6 5 5 9 2 2 4 5 4 7 4 4 6 3 0 3 6 11 14 15 14 15 15 13 17 13 15 14 10 9 6 8 11 15 11 13 19 8 9 8
9 8 7 6 6 5 3 4 3 1 1 6 4 1 1 1 3 2 3 1 3 1 6 2 6 8 8 4 2 2 3 1 4 2 1 1 2 3 3 6 9 12 10 5 6 2 6 2 5 0 0 1 4 4 4 3 5 7 2 3 2 0 4 3 8 13 11 11 13 10 11 9 10 11 12 14 14 15 17 19 19 15 15 18 10 12 18
9 10 9 8 7 7 6 6 2 3 2 5 3 1 4 2 2 1 3 2 3 2 4 7 5 5 7 3 4 11 12 15 9 4 4 1 2 5 9 3 5 5 7 6 3 2 5 7 2 2 0 1 1 2 2 1 2 6 4 3 0 2 5 8 11 11 6 11 12 11 13 12 12 11 9 10 12 17 17 19 14 15 16 16 17 17 20
11 10 10 8 8 8 7 7 5 1 8 5 3 1 1 2 0 2 3 1 4 3 2 2 4 4 3 5 8 12 9 14 11 5 7 10 10 3 13 10 3 2 1 1 6 4 6 5 7 1 4 3 1 1 3 2 4 4 3 4 4 3 6 9 6 8 11 11 12 12 14 11 13 10 11 13 16 19 17 13 14 18 20 17 19 18 14
12 12 11 10 10 9 8 8 7 4 8 3 2 2 1 2 1 1 2 3 2 2 1 1 2 4 4 9 6 8 9 9 5 5 3 1 2 3 2 7 4 2 1 1 1 2 1 4 4 3 1 3 2 3 4 4 5 7 2 1 2 3 4 4 6 9 12 12 14 13 12 12 12 13 14 18 20 19 12 12 12 13 15 13 12 12 7
13 13 12 11 12 10 10 10 8 8 8 3 0 1 1 1 2 2 1 2 4 2 1 2 0 5 3 2 2 2 3 6 7 4 2 8 9 6 5 5 4 5 2 5 2 5 2 1 3 3 5 5 7 6 7 7 5 2 4 2 5 2 3 6 8 10 10 15 11 8 8 10 14 13 19 21 19 17 19 19 6 1 2 4 8 4 3
8 9 10 12 12 11 11 11 11 11 6 4 3 2 1 2 2 1 1 2 4 5 1 3 5 3 1 2 2 5 0 6 8 3 3 3 2 6 5 5 6 2 5 2 2 1 2 3 5 5 8 9 9 7 9 11 11 10 7 4 2 4 6 7 4 8 10 13 13 4 7 11 14 10 1 3 14 12 15 10 2 4 1 2 2 3 2
14 13 11 10 11 13 13 13 13 14 8 6 6 4 4 2 3 3 2 4 5 3 6 5 6 3 2 2 1 1 5 7 3 3 5 7 10 7 2 2 3 4 1 4 4 2 4 4 5 5 6 8 9 10 10 13 14 11 9 10 9 11 8 10 4 7 10 9 6 10 14 14 5 2 1 2 4 6 4 5 2 3 5 7 6 5 1
16 15 13 14 13 9 9 10 13 15 10 7 6 5 4 3 4 3 2 2 5 3 2 5 3 4 2 2 6 5 5 5 4 3 5 7 10 9 2 2 3 4 3 4 3 6 6 8 7 6 8 4 6 8 12 15 18 15 12 13 12 11 12 4 3 5 3 2 4 8 10 5 1 1 2 1 5 5 8 2 4 1 2 3 2 3 4
17 17 17 17 16 16 15 13 11 10 10 5 5 5 5 4 4 4 4 2 7 6 5 9 11 9 6 8 9 10 4 7 5 2 4 3 5 5 4 1 3 1 1 1 2 2 2 3 4 5 6 4 4 3 8 12 14 16 14 12 12 14 5 3 6 4 9 5 9 15 8 16 7 4 2 3 2 1 2 4 2 6 3 2 3 4 5
17 17 17 17 17 17 18 18 18 17 16 11 6 4 4 6 6 5 3 4 5 5 5 7 1 6 6 4 4 3 3 3 2 5 2 1 0 3 2 2 2 4 1 1 1 2 2 1 3 2 5 2 3 4 5 1 4 5 13 11 10 10 12 6 8 5 9 6 6 7 5 10 3 2 6 2 2 2 2 6 4 6 2 4 6 6 7
17 18 17 17 17 17 18 18 18 18 18 17 7 6 7 8 5 3 5 4 2 7 9 13 7 3 3 4 4 6 3 2 3 1 3 2 3 4 3 1 2 1 0 2 0 2 0 2 5 1 5 2 4 1 4 3 5 2 2 2 6 7 9 8 10 6 6 8 9 7 8 6 4 7 4 5 3 3 3 2 5 4 1 5 8 9 8
19 19 18 19 18 17 18 18 19 18 17 16 7 7 6 7 7 7 5 3 6 11 3 2 5 6 6 2 3 1 4 5 5 1 2 3 3 1 5 3 2 1 3 3 1 2 1 0 0 2 4 2 1 4 2 2 1 6 4 5 9 5 4 7 10 11 9 10 10 9 4 3 2 5 3 4 3 2 2 6 4 3 6 3 7 9 8
20 19 19 19 19 19 18 17 18 19 18 20 10 6 6 8 10 7 5 5 8 8 11 6 5 5 7 5 4 2 4 0 2 0 2 3 1 2 2 1 1 3 3 2 2 3 2 3 3 6 6 5 2 2 4 2 1 5 1 1 1 1 1 3 10 9 10 15 11 6 5 1 2 5 4 2 3 3 2 15 3 1 6 7 7 8 9
21 20 20 19 19 20 20 20 19 19 20 21 7 2 6 7 9 9 6 6 8 11 8 8 11 10 4 3 4 3 4 5 4 2 2 4 4 3 5 2 1 2 1 4 2 3 4 4 2 2 3 4 3 5 2 1 5 1 2 4 3 5 1 5 2 6 8 7 10 11 7 5 4 5 5 4 3 1 12 2 4 4 4 5 9 9 9
20 21 21 20 20 20 20 20 20 18 20 21 12 6 4 9 11 14 12 8 6 9 11 7 8 14 7 8 6 4 2 1 5 5 5 6 2 2 2 3 4 4 2 2 1 2 3 4 5 0 1 4 4 4 1 6 5 6 3 4 4 4 1 4 4 3 0 1 7 6 8 1 5 1 1 2 3 7 1 2 3 4 5 5 6 7 9
20 21 21 21 20 20 19 20 21 20 20 21 15 5 6 6 9 8 9 8 5 8 10 6 5 13 9 12 15 14 11 12 8 7 8 8 5 5 3 3 6 4 5 4 7 5 5 4 3 3 3 4 6 2 5 1 4 5 8 8 7 2 7 3 5 4 10 7 7 5 4 3 3 2 5 2 5 3 4 5 11 4 6 5 6 6 8
22 21 21 21 20 20 20 19 20 20 20 21 18 4 7 6 6 7 8 8 8 9 2 1 2 6 9 11 12 12 13 12 13 11 6 4 2 8 5 2 5 4 3 4 4 2 1 3 2 1 2 4 0 6 2 4 7 5 1 1 7 5 9 6 11 3 5 5 5 6 3 1 3 4 5 7 11 11 10 7 8 7 6 5 4 7 9
22 22 22 22 22 22 22 21 20 20 20 20 14 6 10 5 5 6 9 7 4 4 2 3 3 5 5 5 3 5 10 11 8 4 5 6 5 4 9 8 8 2 1 4 7 6 6 7 7 3 1 3 9 9 3 8 5 3 8 4 7 3 1 0 4 9 8 7 9 13 6 6 13 13 12 13 15 14 9 6 6 7 9 5 8 8 10
22 22 21 21 21 20 19 19 20 20 19 20 16 5 7 6 5 6 3 4 5 4 5 7 5 8 11 13 13 7 5 4 7 11 9 8 8 6 2 5 2 1 3 7 7 6 4 4 5 3 8 4 3 5 8 7 7 4 5 7 4 7 4 3 7 9 9 12 14 8 8 10 10 10 12 11 8 10 9 4 4 7 8 9 7 9 10
22 22 22 22 22 22 21 21 20 20 20 19 15 9 5 3 6 9 7 5 4 6 7 3 13 18 12 11 8 8 11 9 10 11 9 10 13 12 13 7 9 11 9 5 1 2 2 5 2 2 10 6 6 10 8 9 8 7 7 8 4 8 6 9 13 16 12 16 16 13 9 9 9 9 11 14 16 12 5 6 7 8 8 8 10 7 9
23 24 23 22 22 22 22 21 21 20 19 20 12 5 7 7 8 9 6 4 2 2 5 9 7 2 3 5 9 10 10 14 12 11 13 15 16 16 14 1 1 1 2 3 4 5 3 1 3 4 6 6 7 6 7 7 6 3 9 11 10 6 5 4 3 6 11 15 15 13 13 12 15 16 13 13 12 11 9 9 8 8 8 10 8 2 3
24 24 22 23 24 23 22 22 21 20 20 17 10 7 8 5 9 11 8 6 4 6 7 9 3 1 0 8 2 2 4 10 12 13 13 13 13 10 9 8 8 4 4 3 2 3 2 3 4 10 8 6 3 4 3 3 6 6 9 12 6 3 11 9 3 10 14 13 14 9 9 10 11 11 10 5 4 5 7 6 6 6 6 5 6 4 2
26 25 25 24 24 22 22 21 21 22 20 18 11 7 4 6 8 10 10 9 12 10 2 1 1 3 1 3 4 5 7 9 11 11 12 13 12 11 10 12 10 9 7 7 6 4 4 6 10 4 2 2 3 8 8 7 4 6 9 13 9 10 13 8 9 11 14 14 14 11 11 11 11 13 12 3 3 3 4 4 4 5 6 5 6 8 7
26 25 23 24 23 24 23 21 19 19 20 15 2 2 2 8 7 9 11 9 8 8 8 8 1 2 8 5 4 8 6 9 10 11 11 11 11 11 12 13 12 11 11 9 6 8 6 8 6 5 5 4 3 5 3 8 9 11 15 16 14 12 10 13 15 16 17 18 17 14 10 12 13 10 4 6 6 5 3 4 4 5 5 6 5 4 5
26 26 24 25 26 24 24 24 22 20 17 4 7 1 4 4 8 10 10 8 6 3 4 4 6 4 2 1 3 5 7 8 10 12 12 11 10 12 12 13 12 13 9 6 7 9 9 6 6 7 5 4 3 3 5 8 10 13 14 14 11 11 12 14 14 14 15 14 12 7 5 6 2 2 6 6 7 7 4 5 6 6 5 5 6 5 3
27 26 26 25 26 25 24 22 21 21 15 5 4 4 4 6 3 9 16 12 11 7 3 3 7 2 3 2 3 10 10 9 10 11 14 14 12 12 10 8 9 9 8 8 9 10 6 6 5 4 5 10 8 4 8 8 11 11 15 11 12 13 13 13 13 6 4 6 7 5 4 3 2 2 4 9 8 6 4 4 5 5 6 7 5 5 7
26 27 27 26 27 27 23 24 24 21 7 9 10 7 4 4 3 6 13 9 8 4 4 5 5 3 3 2 2 2 8 11 8 4 2 4 6 6 5 10 8 9 10 8 7 3 7 8 8 8 7 10 8 1 4 9 12 15 14 13 12 11 8 5 2 5 7 5 7 8 12 4 12 6 3 7 6 5 5 6 6 7 7 6 6 6 7
24 26 26 25 23 25 24 24 25 19 8 9 11 8 6 11 9 9 9 8 6 3 2 4 5 1 2 5 1 2 3 2 0 4 4 4 5 5 5 6 6 5 9 7 5 5 3 6 8 11 11 4 3 3 7 13 16 16 15 14 13 6 1 5 6 6 6 6 6 3 8 3 4 4 4 4 4 5 6 6 7 7 7 8 9 9 7
24 24 26 26 25 25 25 24 23 23 12 5 4 9 9 10 10 13 8 4 2 0 1 4 3 5 5 2 2 3 5 6 5 7 5 2 3 5 5 4 7 4 6 10 6 4 2 2 6 5 3 4 7 4 10 14 16 17 16 14 2 4 0 3 5 5 6 4 4 2 1 3 3 3 2 3 5 5 5 6 6 10 11 8 8 8 9
25 25 25 24 23 24 23 18 11 7 6 6 4 2 7 16 15 16 14 7 4 3 2 3 2 4 3 0 3 4 3 4 3 6 8 4 2 7 2 2 3 7 5 5 4 8 7 7 3 2 10 1 3 9 8 11 13 15 12 2 5 4 2 2 2 5 5 4 3 2 3 3 3 3 3 5 5 6 7 5 7 8 11 11 9 9 8
25 24 23 21 20 18 9 10 5 6 5 5 4 7 14 14 15 11 12 8 6 4 3 3 3 8 7 9 6 2 4 3 2 2 3 2 1 0 2 3 6 7 2 5 6 6 8 5 5 9 6 7 9 9 12 9 11 5 3 2 4 5 3 2 4 6 6 5 3 0 3 4 4 4 3 4 5 4 6 9 8 5 7 11 12 10 10
21 21 21 17 7 3 6 5 3 6 5 4 6 11 8 5 6 3 1 2 2 0 4 3 4 6 7 6 1 3 5 5 3 2 1 3 5 0 2 2 7 2 2 3 5 7 9 6 5 8 7 11 13 0 3 3 1 1 1 3 3 3 3 3 4 5 5 5 0 1 3 3 4 2 4 4 5 6 6 8 7 9 11 13 13 12 11
21 20 9 4 3 5 3 5 5 6 12 16 13 6 2 2 2 3 2 3 1 4 3 3 9 3 3 3 3 2 5 4 3 6 2 2 3 2 2 3 5 4 7 6 7 5 1 3 5 9 13 2 5 3 3 5 4 4 4 4 4 3 3 3 4 4 5 5 3 7 9 7 5 3 7 8 6 8 8 7 7 6 7 10 11 12 14
17 7 5 4 5 6 7 5 9 19 11 4 4 2 1 1 3 2 3 2 2 4 3 6 9 6 6 6 3 2 5 5 3 2 5 4 5 4 2 2 3 3 4 1 5 9 3 2 4 4 12 3 3 3 2 4 5 4 3 3 3 3 3 2 4 4 1 1 3 2 2 5 9 11 5 9 9 7 7 8 7 7 8 10 11 11 12
4 6 6 5 7 4 2 11 24 14 4 5 1 3 2 2 5 3 2 2 2 2 3 6 4 6 10 12 8 8 3 4 7 8 7 2 0 4 1 2 2 3 4 5 4 4 4 3 3 2 10 7 6 4 3 3 3 3 2 2 3 3 3 3 3 3 3 5 6 4 4 5 6 8 10 9 10 12 9 6 7 8 9 10 11 12 13
4 4 3 6 4 3 3 8 5 5 3 2 2 1 2 1 2 1 2 4 3 3 1 3 2 2 3 6 7 9 1 2 2 2 3 3 1 5 2 2 1 3 2 1 2 4 1 1 2 5 9 1 4 3 2 1 1 2 1 1 1 2 1 2 3 3 3 4 4 6 5 6 7 8 8 9 10 11 11 11 11 9 10 11 12 12 10
5 5 3 6 4 4 6 3 2 4 1 2 3 4 4 2 1 0 2 5 5 2 3 3 3 5 6 9 8 4 2 1 2 1 2 2 3 5 2 1 1 3 3 3 2 1 2 2 1 5 4 3 3 2 2 0 0 0 2 0 2 1 2 3 3 4 3 5 5 6 7 6 8 8 8 9 10 11 12 13 14 12 11 11 10 11 11
20 13 7 5 2 0 1 3 3 3 4 3 3 2 2 3 3 5 3 1 1 2 3 1 1 1 2 2 1 0 2 1 2 1 2 3 1 3 1 0 1 1 4 2 2 1 2 4 4 9 2 5 2 3 1 2 0 2 2 2 2 2 2 3 4 5 5 5 6 6 7 7 8 8 8 9 11 13 12 11 12 13 11 11 11 11 11
5 4 4 1 3 2 3 5 2 4 2 2 5 7 3 3 2 2 1 4 3 2 5 8 6 8 6 1 4 2 1 1 3 2 1 1 2 1 1 3 4 3 3 1 2 3 5 3 8 3 5 2 1 2 2 1 1 2 2 1 1 3 3 3 4 5 6 5 5 6 6 8 10 9 7 7 8 13 13 12 11 11 11 11 11 11 11
5 2 3 2 2 3 4 3 2 3 6 5 5 4 5 10 9 8 10 4 5 7 5 4 6 8 6 2 2 1 2 2 1 4 3 3 1 1 3 4 1 1 2 4 1 2 3 7 1 1 3 3 3 2 1 1 2 3 3 3 3 2 3 4 5 5 6 6 8 7 8 8 8 10 8 9 8 8 10 13 11 11 10 10 11 11 11
4 5 4 4 4 3 4 2 2 1 2 3 5 7 8 8 7 7 3 2 4 1 7 8 5 5 4 1 5 4 2 2 1 2 2 1 3 4 2 0 1 1 1 1 2 6 9 4 3 4 3 3 2 2 1 3 2 2 1 4 5 5 4 5 5 5 7 8 7 7 8 8 9 9 10 9 8 9 9 10 10 10 10 10 12 12 11
2 1 1 1 2 2 2 4 5 4 3 4 6 9 9 8 4 3 3 1 3 2 4 1 3 2 6 2 2 1 1 0 2 1 3 1 3 1 2 2 2 2 2 3 4 5 6 3 4 2 4 2 1 2 2 3 2 2 3 4 4 5 6 5 6 7 8 7 8 9 9 9 9 9 9 9 9 9 9 9 11 10 10 11 12 11 12
4 1 3 3 3 3 7 4 2 3 2 1 3 1 1 3 7 3 1 1 1 3 8 5 4 2 3 2 3 4 3 1 2 3 3 2 1 2 1 0 2 2 3 4 8 3 2 1 4 4 3 1 1 1 3 3 3 3 4 4 5 6 6 6 7 8 7 8 9 9 9 9 9 9 9 10 11 10 10 9 9 9 9 10 10 10 11
3 3 3 2 0 2 1 4 9 8 2 1 0 3 6 7 6 3 2 1 4 6 2 5 3 4 2 2 3 2 2 2 3 3 2 0 2 3 2 3 1 3 5 6 4 3 4 3 3 3 1 1 1 1 3 3 3 4 4 5 6 6 6 7 8 8 9 9 9 10 9 9 8 9 9 9 9 11 9 8 8 9 10 10 10 10 9
4 2 2 4 2 4 1 0 4 4 1 2 1 4 2 4 4 2 2 3 0 3 2 0 1 2 2 3 0 1 1 1 2 0 2 3 3 1 2 2 5 7 4 2 2 2 2 4 3 1 1 1 2 2 3 4 3 4 4 4 5 6 7 8 9 9 8 9 9 9 9 9 8 8 9 9 9 9 9 9 10 10 10 9 8 7 7
3 3 1 0 3 3 5 7 11 9 6 8 6 6 4 6 6 5 1 4 4 4 2 4 3 2 2 2 2 2 2 2 2 4 4 4 2 3 4 8 7 4 2 0 1 3 4 3 3 2 1 2 3 3 3 4 4 5 5 6 7 7 8 7 9 9 9 9 8 8 9 9 9 9 9 8 9 9 9 10 9 8 6 5 5 6 6
2 2 2 0 1 1 2 3 4 1 2 3 6 2 3 4 3 2 1 4 6 9 8 2 3 2 2 4 3 1 1 2 0 2 1 5 3 4 4 4 2 5 6 5 4 2 3 2 3 3 2 2 3 4 4 4 4 6 6 6 6 7 7 8 8 8 8 8 9 8 9 9 9 8 6 7 7 7 7 6 4 4 6 5 5 6 5
Wind_Direction
298 294 310 316 318 328 348 1 8 7 9 33 340 311 201 206 225 273 229 190 159 164 216 222 220 223 256 3 295 230 287 213 218 241 196 232 217 271 248 232 248 239 244 228 245 189 252 177 231 210 237 238 219 212 185 140 122 0 291 274 251 100 178 241 255 257 271 272 269 258 194 188 333 285 243 182 224 217 239 246 265 263 267 267 263 248 252
305 305 304 310 313 320 326 347 1 0 24 60 330 19 286 339 318 324 326 286 199 187 212 217 221 234 264 257 258 259 224 263 274 227 225 185 200 222 223 332 231 259 204 214 239 165 276 198 234 243 219 252 290 337 14 4 251 186 271 253 243 242 232 208 286 278 300 288 331 327 39 53 227 236 233 225 243 259 265 282 48 270 238 251 257 261 264
281 289 294 302 317 316 321 330 342 359 8 39 52 88 313 325 281 231 304 324 280 242 209 233 230 227 240 232 247 251 245 220 243 256 248 206 220 321 274 242 19 261 241 267 284 237 236 284 264 228 213 229 357 21 35 7 136 22 353 119 265 249 229 187 237 247 268 268 256 254 259 218 195 252 254 246 218 235 251 259 246 255 223 235 247 263 261
266 270 274 285 300 306 309 317 323 344 9 53 72 256 44 311 33 291 348 321 308 262 283 329 237 257 252 248 246 250 253 245 228 176 254 223 242 238 287 302 327 216 296 281 246 252 187 202 255 329 323 286 336 318 350 39 16 339 50 10 302 249 313 226 230 242 249 255 263 240 251 220 213 246 216 251 251 232 232 248 252 247 259 245 247 260 272
265 268 279 284 287 312 334 339 343 11 17 69 98 20 114 306 119 252 303 332 301 251 24 317 209 238 209 245 201 244 249 260 280 173 275 209 220 239 216 220 222 253 213 238 260 238 264 233 257 242 256 260 247 317 102 67 17 5 61 343 89 12 239 247 264 253 261 269 276 283 288 281 281 280 273 272 264 256 246 235 251 255 268 260 252 275 285
263 266 264 268 278 270 264 269 301 344 137 74 74 50 307 69 260 81 249 240 248 265 262 10 297 298 315 277 314 297 297 283 262 348 264 314 35 215 333 253 222 247 241 268 259 144 242 167 257 161 257 22 326 350 344 70 353 34 7 336 81 90 255 254 263 261 261 271 286 292 293 277 284 281 287 279 278 274 264 260 257 257 248 265 280 294 290
268 270 269 265 266 268 272 274 254 272 220 112 97 90 283 125 293 250 302 127 263 2 318 340 313 329 288 312 305 272 261 264 255 247 312 10 298 200 254 214 247 228 262 251 261 293 287 267 253 211 243 251 353 325 344 295 54 31 15 14 208 284 259 248 252 287 313 297 288 287 285 289 283 276 270 272 276 273 269 270 279 277 272 268 268 267 266
267 259 253 260 260 262 259 266 268 148 106 81 77 190 110 295 146 304 357 284 310 307 335 314 327 293 264 273 213 252 258 271 278 259 238 250 256 155 241 250 208 134 94 159 244 255 286 293 250 216 109 316 111 226 236 280 351 20 2 334 287 225 269 338 344 311 292 290 281 274 272 282 280 277 278 276 269 267 265 276 271 266 265 270 267 265 268
253 258 258 254 255 252 250 249 247 181 118 34 128 268 141 248 42 311 22 323 229 105 59 240 315 279 239 239 261 255 258 267 20 288 2 249 272 14 351 18 352 356 99 51 229 334 99 58 50 19 4 194 318 73 282 55 326 319 303 185 302 288 299 346 308 301 284 280 278 284 290 282 279 276 271 265 263 269 271 259 249 254 268 276 288 273 257
249 249 250 253 252 244 244 247 239 226 148 106 116 172 249 67 292 103 130 249 272 119 246 112 277 249 258 286 329 329 328 63 330 326 74 53 78 87 35 347 38 325 346 304 239 110 107 171 250 223 228 225 247 216 228 264 262 297 269 219 274 232 289 295 296 283 250 269 280 300 314 318 279 252 247 254 265 263 264 261 287 50 113 253 246 249 99
276 276 261 244 241 244 246 242 235 233 145 150 131 215 142 150 188 61 188 214 266 147 170 254 209 253 76 3 10 338 270 12 12 331 300 73 295 53 21 14 354 326 292 359 72 221 220 214 227 218 230 229 237 233 232 236 228 219 239 274 212 226 227 249 220 253 285 288 293 338 321 270 255 269 49 190 251 261 266 274 51 327 155 220 88 159 84
250 247 247 261 255 245 237 235 233 233 181 183 144 173 198 128 79 88 126 230 265 126 170 219 194 263 331 326 66 281 311 320 313 329 269 291 293 325 337 283 285 313 56 21 321 331 262 247 247 262 244 249 244 243 237 239 242 226 216 226 247 248 246 252 212 258 268 282 334 311 258 257 287 41 275 66 75 89 106 103 158 191 141 124 130 148 158
256 254 263 262 259 259 260 258 241 238 206 159 151 187 215 157 133 160 154 192 248 205 200 250 223 216 222 355 305 270 248 256 269 258 267 269 292 297 279 256 238 261 41 0 2 334 311 285 292 266 266 266 268 263 255 247 248 242 224 216 221 237 240 238 245 225 306 229 225 250 261 105 7 220 148 165 86 128 93 75 151 135 144 131 98 198 180
249 251 247 246 248 250 249 246 249 253 247 157 173 184 161 145 150 181 173 206 256 244 229 266 260 254 249 253 251 267 286 282 273 242 270 241 215 264 299 236 218 70 337 85 354 272 334 21 346 8 309 7 348 322 249 244 244 245 244 223 217 230 240 195 269 216 239 221 216 247 324 309 266 240 268 125 179 151 133 225 222 160 253 165 199 228 216
251 248 247 247 247 246 245 245 243 237 233 203 168 201 175 175 163 167 198 232 257 265 202 234 183 184 214 226 217 228 221 243 310 278 233 310 34 230 185 271 336 341 280 81 335 34 170 97 5 326 328 340 272 253 323 332 297 233 238 236 209 207 212 211 227 259 227 259 282 282 269 257 293 220 273 281 216 153 256 103 286 127 282 234 196 221 222
251 249 249 248 246 245 243 242 242 242 242 230 184 196 192 191 169 133 169 178 230 260 241 224 221 183 181 207 183 179 209 186 212 186 318 272 243 302 286 275 311 120 51 93 90 90 52 135 240 144 234 217 244 48 294 5 332 300 27 257 186 208 211 217 217 259 255 256 254 256 263 262 139 214 207 250 183 168 229 96 273 165 238 261 190 224 230
250 250 250 248 246 243 241 241 240 237 236 232 208 196 207 181 171 177 173 203 200 228 17 107 196 194 219 237 185 190 213 228 228 237 276 262 237 213 297 318 310 145 191 76 252 107 31 16 153 172 287 179 3 223 299 22 287 326 327 46 58 121 210 203 228 232 230 248 253 255 244 254 226 187 244 211 94 169 99 308 292 104 287 234 189 213 234
252 251 250 250 249 246 244 244 243 240 237 236 218 196 207 187 186 158 210 189 222 247 233 179 113 167 199 185 187 210 81 11 46 119 198 240 32 287 280 6 292 287 147 97 196 79 193 162 195 238 236 257 163 7 258 225 160 232 289 9 331 296 311 192 223 242 248 249 265 275 288 287 184 193 242 276 164 114 266 265 253 217 189 220 190 212 230
251 251 250 250 249 248 245 241 241 243 239 235 215 134 229 193 195 187 196 205 213 240 223 199 207 220 210 92 183 176 189 176 173 151 268 357 252 203 166 237 139 282 32 161 59 163 185 227 112 149 199 274 138 218 228 252 237 23 140 311 310 287 162 309 164 219 234 238 253 252 266 234 173 271 193 205 91 253 248 244 154 182 225 210 190 213 230
249 249 248 248 249 248 247 245 241 241 244 242 217 189 191 179 193 188 188 214 223 239 240 211 191 216 206 194 205 188 249 41 195 177 175 214 251 86 2 286 314 93 338 97 182 217 118 218 196 162 262 236 253 181 334 229 247 246 262 206 221 220 154 224 219 235 277 210 249 261 259 354 114 199 27 214 162 230 220 283 269 196 225 218 223 205 233
249 248 248 247 246 246 246 246 246 242 241 242 239 205 243 195 189 200 209 219 225 250 256 221 185 224 203 214 210 209 195 204 181 199 219 215 192 98 193 212 212 134 211 153 178 213 160 231 239 188 223 167 253 63 202 208 314 270 221 240 250 212 274 248 263 194 263 233 236 215 213 181 227 114 223 231 217 233 298 306 294 252 206 222 234 235 235
251 251 251 250 249 247 246 246 246 245 244 242 236 180 234 203 182 190 203 204 222 231 238 245 218 230 227 224 219 211 209 213 207 193 192 217 240 196 215 159 185 150 205 122 60 8 311 198 40 68 265 262 29 227 215 271 253 260 10 84 297 203 207 215 252 239 224 207 230 253 246 200 221 180 236 242 268 278 275 246 250 267 262 222 225 257 265
248 248 248 248 247 247 246 245 244 240 240 242 237 172 220 183 182 174 157 209 247 287 302 269 263 256 256 246 224 203 219 220 210 180 172 194 250 225 215 219 240 188 173 171 187 189 208 147 220 179 308 200 231 261 244 189 257 220 246 227 242 313 238 230 334 263 266 247 248 268 276 277 283 275 276 280 281 284 280 244 254 238 245 250 260 272 271
246 247 247 247 245 243 243 243 243 245 243 244 238 164 225 209 159 128 155 210 198 254 255 224 225 236 222 233 226 208 218 218 200 208 203 190 227 254 222 228 152 190 213 211 175 208 207 145 212 167 237 220 110 219 246 248 221 217 245 270 256 241 231 213 239 271 276 268 256 258 263 267 270 272 274 276 267 260 274 269 231 258 269 276 269 258 262
242 242 241 241 243 244 244 244 242 244 242 239 239 228 192 129 162 164 157 200 206 189 235 224 218 231 227 224 224 210 213 208 212 210 199 200 211 224 234 199 182 201 221 203 173 144 65 198 249 187 238 227 183 249 221 245 264 140 241 244 273 278 189 224 240 253 246 264 269 266 252 252 264 265 274 275 277 276 256 240 256 270 275 273 274 281 267
244 243 244 243 242 241 240 241 240 239 241 243 227 148 208 208 170 179 182 223 237 171 235 243 273 0 219 193 215 207 196 204 207 207 205 209 213 221 234 95 303 250 183 123 116 202 192 150 191 227 228 254 176 242 242 213 252 198 238 251 223 243 89 219 182 241 256 262 263 267 273 272 268 264 255 256 268 283 288 276 272 274 278 276 279 241 281
244 242 238 240 242 242 240 241 241 240 239 238 234 192 198 196 171 179 187 172 211 270 215 247 240 285 191 214 227 122 175 196 206 210 218 219 222 227 231 236 228 210 162 218 231 194 185 224 198 234 211 242 222 230 236 295 217 231 242 253 254 261 251 249 245 265 262 261 269 271 278 276 271 268 273 255 237 241 262 277 284 284 289 321 320 320 15
243 241 240 239 242 243 242 238 238 241 239 236 230 219 189 196 199 193 196 185 195 237 304 289 259 257 62 271 244 212 201 191 195 204 215 219 217 217 223 227 225 229 223 211 223 179 188 210 233 232 238 230 229 249 235 258 283 262 246 251 232 226 242 238 239 244 260 262 260 256 257 268 270 278 286 352 10 333 319 335 346 3 31 9 1 338 329
241 241 241 242 239 239 241 239 233 235 238 236 194 143 163 214 206 202 204 201 205 234 245 258 272 119 258 257 154 201 209 180 190 199 209 216 210 212 215 219 220 226 227 223 228 236 222 227 215 216 211 194 143 248 226 238 231 238 241 241 239 237 240 243 249 256 263 270 274 277 272 269 275 285 357 50 20 28 29 44 24 15 4 6 6 360 335
242 240 238 239 240 236 233 233 233 234 234 201 91 139 264 259 192 195 193 190 182 216 236 217 232 245 356 88 232 199 198 196 199 201 207 208 209 209 211 212 221 220 217 214 211 230 224 234 222 221 219 127 185 221 219 241 244 246 250 251 250 250 239 242 245 244 254 262 274 284 289 283 310 85 89 61 40 23 22 4 3 353 355 2 341 322 322
243 240 237 237 240 238 237 236 233 230 219 124 131 174 203 257 184 181 191 192 180 184 228 236 252 7 297 241 180 198 190 190 197 206 211 210 210 207 208 202 222 208 215 218 223 230 214 222 214 219 185 193 207 191 239 240 253 253 250 244 245 245 243 242 243 262 298 314 322 303 265 284 350 121 97 45 6 12 3 353 348 349 330 335 319 321 309
242 240 239 233 235 233 228 231 232 228 182 160 185 193 184 197 191 190 191 180 150 158 192 242 247 216 237 259 228 232 184 193 194 183 211 154 222 191 206 193 213 196 209 223 221 237 222 236 238 233 222 206 203 244 216 240 247 252 257 253 249 249 244 260 273 56 41 7 347 328 287 266 62 45 302 337 342 357 359 337 334 330 333 317 311 298 285
244 245 243 239 231 236 233 231 230 223 188 207 218 223 125 117 120 140 167 133 144 194 178 206 220 223 240 240 338 300 172 91 86 141 249 167 204 150 216 194 215 219 210 223 199 234 195 207 220 238 236 184 200 219 241 238 245 252 257 256 261 281 332 81 87 76 59 11 29 231 273 352 339 353 312 327 348 349 344 337 337 333 328 323 319 318 314
244 241 243 242 236 231 229 229 234 234 212 133 211 224 208 191 130 127 123 108 133 254 176 209 203 213 238 17 45 271 154 162 201 169 244 224 166 156 197 162 190 203 194 211 217 228 234 106 198 238 40 210 210 226 240 246 249 258 258 264 358 28 108 93 50 51 22 20 7 342 339 350 325 289 275 348 338 340 344 344 346 338 324 319 314 320 319
239 239 239 238 235 233 228 223 227 221 208 213 240 274 171 203 211 157 154 156 165 219 196 260 188 247 250 315 209 260 164 101 181 195 198 254 156 180 142 132 197 203 221 159 232 223 228 219 125 124 230 138 174 233 241 253 251 253 262 256 20 350 42 184 109 32 337 345 338 317 50 4 340 7 355 338 332 338 343 344 345 325 320 315 313 317 322
243 238 235 229 232 232 233 227 187 169 193 197 206 172 181 201 203 179 173 175 195 214 198 224 185 224 215 237 234 245 115 226 175 106 192 139 357 248 144 165 219 213 148 168 225 198 221 164 122 233 212 217 225 226 243 252 264 286 54 59 31 53 72 60 345 338 311 307 276 232 15 6 21 325 338 309 322 336 345 326 325 327 306 303 309 316 317
243 242 234 227 215 176 206 203 166 190 195 136 149 142 155 120 29 69 107 189 306 131 214 158 195 223 199 231 47 259 129 216 151 133 164 163 198 277 122 176 218 175 143 237 203 211 226 150 205 238 222 232 242 236 45 57 50 35 80 71 53 43 45 32 9 323 315 316 148 101 1 332 327 332 329 326 321 331 331 327 330 331 318 309 309 308 304
233 226 213 161 107 183 169 202 192 174 140 139 133 84 357 64 150 157 194 211 209 132 243 180 240 209 64 119 257 209 146 236 99 177 250 228 141 241 191 201 216 181 220 213 223 156 53 162 213 219 244 230 45 75 51 66 69 63 60 59 44 22 37 19 13 8 6 359 347 344 342 335 315 343 334 318 329 319 314 307 308 297 292 293 297 303 307
229 211 176 175 171 206 194 196 152 138 119 66 66 93 148 134 139 207 204 177 169 215 186 186 229 192 180 200 228 160 177 179 193 194 191 215 145 270 110 168 221 163 257 132 262 117 222 224 220 223 246 193 206 159 156 86 76 63 56 32 37 3 38 26 22 45 73 242 255 279 264 279 298 300 303 295 299 287 290 298 294 292 293 293 296 297 296
136 187 174 156 204 197 126 147 136 123 111 136 218 122 176 170 170 221 120 146 229 238 156 237 193 193 195 216 206 225 142 135 177 215 192 306 147 160 225 75 271 110 224 181 240 80 157 229 236 180 249 217 205 93 104 106 86 56 47 25 350 355 7 16 345 307 312 292 291 284 284 283 286 288 297 297 298 299 297 279 276 285 288 286 289 293 296
164 99 131 197 164 150 159 115 70 54 99 118 122 190 117 197 195 189 132 211 195 238 168 190 111 185 219 198 206 229 185 94 354 78 115 196 223 81 99 172 147 84 233 227 263 89 79 77 247 206 236 159 109 122 93 63 135 51 0 291 19 292 9 313 310 310 302 288 289 278 275 269 271 272 275 277 284 284 289 295 296 293 292 294 296 295 295
184 144 128 88 88 102 102 54 81 101 107 175 139 195 165 196 63 22 179 170 209 189 280 148 219 180 219 185 204 167 262 148 149 153 125 229 218 151 217 284 339 174 233 208 109 57 102 218 224 260 246 172 144 140 161 45 188 37 307 297 295 346 296 300 299 288 268 264 270 279 276 277 275 276 277 284 284 287 292 296 293 292 291 291 293 294 297
112 115 101 100 78 52 95 130 196 130 159 169 120 207 161 139 192 160 206 204 321 121 252 40 218 73 313 59 329 224 186 160 150 202 104 209 33 59 119 232 95 271 225 29 69 94 184 226 227 243 155 172 170 191 189 204 195 265 270 309 281 258 305 296 282 284 281 274 275 276 279 277 275 272 277 276 282 283 279 276 282 289 294 294 294 294 293
112 85 74 111 106 248 129 199 169 73 200 169 153 184 146 170 228 107 157 226 188 235 203 155 197 144 218 220 153 146 38 300 148 84 320 301 83 198 174 213 208 242 57 28 127 200 227 233 217 212 175 193 231 215 194 214 270 272 293 258 322 299 279 279 287 289 293 286 284 280 281 279 279 278 271 268 266 276 282 283 281 285 287 291 291 290 290
125 60 100 91 170 202 107 235 102 140 189 193 165 188 169 190 192 182 197 218 146 211 189 173 148 183 188 218 40 306 162 201 326 123 219 126 147 190 140 241 227 30 153 214 183 307 15 260 228 85 187 198 182 196 173 249 262 283 290 302 283 287 288 290 295 296 287 289 283 285 280 279 280 280 278 275 271 265 274 282 288 291 289 288 288 288 286
154 162 138 142 193 202 157 190 117 195 265 163 197 185 175 202 161 201 216 64 158 154 154 189 160 129 126 237 143 196 96 116 94 208 150 98 129 232 200 40 91 175 277 88 193 212 223 238 153 203 177 188 161 197 200 246 261 267 345 303 300 306 304 292 280 281 282 286 287 283 283 283 282 285 284 278 276 275 271 273 279 281 286 288 285 284 289
125 99 108 127 148 210 100 171 211 200 173 183 193 179 180 174 167 134 142 120 146 187 89 11 118 172 147 198 93 342 43 49 152 215 88 143 195 228 88 120 220 179 184 230 240 243 255 237 214 169 164 162 207 250 249 269 268 269 266 270 287 287 290 294 288 286 287 286 285 284 282 281 279 278 282 286 281 276 277 278 278 276 276 275 279 283 286
160 147 116 151 201 147 174 207 125 86 18 154 204 142 200 124 120 210 225 158 180 125 134 121 97 67 25 301 77 175 174 189 84 263 156 209 52 49 212 129 222 224 191 174 225 206 202 159 173 173 176 159 213 252 275 283 287 288 285 289 284 290 289 291 294 288 286 289 284 282 280 280 281 284 285 283 286 284 279 276 274 274 273 275 278 281 285
98 118 154 196 234 136 164 109 140 156 197 0 211 120 131 141 189 153 159 144 139 155 173 119 172 106 189 148 150 177 224 196 170 222 81 84 152 212 172 232 184 272 250 185 199 176 192 153 130 139 190 234 256 258 274 275 280 287 286 281 285 287 292 290 287 287 286 281 279 280 282 282 284 284 282 284 283 282 281 278 281 282 278 277 280 282 289
82 52 36 83 43 336 281 19 113 157 32 344 168 175 173 114 119 202 208 114 236 104 181 81 234 129 186 120 179 148 231 212 183 108 97 208 198 213 82 258 225 199 246 230 225 228 172 157 116 145 200 222 275 260 271 281 275 273 281 286 292 293 290 289 290 287 283 278 278 278 280 285 284 279 278 277 279 285 291 290 285 280 279 275 275 289 301
1 89 140 349 139 208 139 167 182 194 192 210 192 199 168 167 160 174 183 135 149 107 92 153 173 131 142 94 128 158 234 106 102 191 170 208 178 142 197 217 233 208 207 188 148 146 165 176 158 186 251 261 258 264 260 272 288 286 290 294 292 291 289 285 279 281 281 282 280 285 286 279 272 271 275 281 283 286 288 287 278 267 270 285 297 294 293
65 72 166 159 124 90 313 295 2 64 170 150 150 222 127 157 157 152 213 116 150 161 187 178 111 126 110 182 199 180 22 40 232 47 330 261 142 150 216 202 200 191 172 163 191 189 173 206 188 190 202 225 255 261 276 290 292 295 294 288 285 286 284 284 283 283 284 289 286 278 275 274 277 278 279 279 278 282 283 287 302 313 310 301 289 289 287